Weather Roundup
Issued by NWS Corpus Christi, TX

Home | Current Version | Previous Version | Text Only | Print | Product List | Glossary On
Versions: 1 2 3 4 5 6 7 8 9 10 11 12 13 14 15 16 17 18 19 20 21 22 23 24 25 26 27 28 29 30 31 32 33 34 35 36 37 38 39 40 41 42 43 44 45 46 47 48 49 50
827
ASUS44 KCRP 192010
HRRCRP

SOUTH TEXAS REGIONAL WEATHER ROUNDUP
NATIONAL WEATHER SERVICE CORPUS CHRISTI TX
300 PM CDT THU OCT 19 2017


TXZ229>244-192100-
...CORPUS CHRISTI AREA OBSERVATIONS...

CITY           SKY/WX    TMP DP  RH WIND       PRES   REMARKS
CORPUS CHRISTI CLOUDY    83  64  52 E13       30.02F
NAS CORPUS CHR CLOUDY    83  71  67 NE13      30.02F
ROCKPORT       PTSUNNY   82  71  69 E13       30.03F
KINGSVILLE ARP PTSUNNY   86  70  59 E9        30.02F HX  90
KINGSVILLE NAS LGT RAIN  82  71  69 E13       30.01F
ALICE          CLOUDY    84  66  54 E10       30.01F
$$

...VICTORIA AREA OBSERVATIONS...

CITY           SKY/WX    TMP DP  RH WIND       PRES   REMARKS
PORT LAVACA    CLOUDY    83  67  58 E16       30.06F
VICTORIA       LGT RAIN  77  71  82 SE6       30.06F
BEEVILLE       CLOUDY    86  58  38 E12       30.03F
PLEASANTON     FAIR      86  59  39 S9        30.04F
SAN ANTONIO    PTSUNNY   81  60  48 E13       30.06F
$$

...LAREDO AREA OBSERVATIONS...

CITY           SKY/WX    TMP DP  RH WIND       PRES   REMARKS
LAREDO         FAIR      87  62  43 SE13      30.01F
COTULLA        FAIR      84  60  44 SE14      30.02F
DEL RIO        FAIR      79  62  56 SE15      30.02F
MCALLEN        FAIR      89  65  44 E10       29.98F HX  91
HEBBRONVILLE   PTSUNNY   85  61  45 SE13      30.02F
$$

...OTHER TEXAS OBSERVATIONS...

CITY           SKY/WX    TMP DP  RH WIND       PRES   REMARKS
BROWNSVILLE    CLOUDY    85  71  63 NE10      29.99F HX  90
HOUSTON        PTSUNNY   83  64  52 VRB7      30.08F
COL. STATION   FAIR      83  59  44 CALM      30.07F
AUSTIN         PTSUNNY   81  60  48 E5        30.07F
WACO           FAIR      84  56  38 S12       30.07F
FORT WORTH     FAIR      81  51  35 SE12      30.08F
WICHITA FALLS  PTSUNNY   81  48  31 SE15      30.05F
LUBBOCK        PTSUNNY   75  49  39 S20       30.04F
EL PASO        FAIR      82  47  29 SE12G21   30.00F
$$

...MARINE OBSERVATIONS...

STATION/POSITION TIME  SKY/WX   TEMP    WIND        PRES    VSBY  WAVE   SWELL
                                AIR SEA DIR/SP/G                  HT/PER HT/PER
                 (UTC)          (F)     (DEG/KT/KT) (MB)    (MI)  (FT/S) (FT/S)
PORT ARANSAS     NOT AVBL
BUOY 90 E PORT A 1850            80 82   80/ 17/ 19 1017.4          5/ 6   2/ 8
BUOY 200 E PT IS 1950            82 84  110/ 10/ 12 1015.5F         5/ 8   5/ 8
BUOY 15 E GALVES 1850            75 80   60/ 17/ 21 1019.1          4/ 6   2/ 8
$$




USA.gov is the U.S. government's official web portal to all federal, state and local government web resources and services.